星链-37181(STARLINK-37181)

导读

STARLINK-37181(NORAD编号68341)是美国太空探索技术公司(SpaceX)星链(Starlink)星座的低轨互联网卫星,运行于近地轨道,为全球偏远地区及移动场景提供低延迟宽带互联网服务。星链卫星普遍采用亮度抑制优化,降低天文观测干扰,并设计了可快速离轨的空间碎片规避机制。 该卫星目前公开信息中暂无异常事件记录,2025年底曾有星链卫星因内部故障轨道骤降解体,SpaceX已建立与航天机构的碎片监测合作,故障卫星残骸一般会在数周内再入大气层完全烧毁,不会对地面造成威胁。

Basic Information
目录编号:
68341
目录名称:
STARLINK-37181
国际标识:
2026-059W
轨道中心:
EARTH
卫星名称:
星链-37181
卫星全名:
星链-37181(STARLINK-37181)
卫星状态:
在轨 (已飞行174 天)
发射日期:
2026-03-22 UTC
国别 :
美国 (US)
星等 :
--
This satellite is enrolled in the Space Conjunction Data Service (SCDS) and the current flight risk assessment level is: No High Risk
Orbit Information
数据来源 国际轨道数据
星历时间: 2026-09-11T21:07:32+0800
19小时前
查看轨道信息
半长轴: 6840.793km
偏心率: 0.0002289
轨道倾角: 53.158°
近地点辐角 76.883°
升交点赤经 197.684°
平近点角 283.242°
近地点: 461.09km
远地点: 464.222km
周期: 93.847分钟
每日圈数: 15.344162
Detailed Information
固有亮度:
5
最大亮度:
2.5
卫星平台:
Starlink V1.0
覆盖范围:
全球
运营商:
太空探索技术公司
运营商所在国:
美国
制造商(研发单位):
太空探索技术公司
制造商所在国:
美国
使用方式:
暂无
Satellite Introduction
Starlink 计划是 SpaceX 推出的全球卫星互联网项目,通过发射低轨道卫星,为全球尤其是偏远地区提供高速、低延迟的互联网服务。自 2019 年起,Starlink 已部署数千颗卫星,旨在缩小全球数字鸿沟,推动互联网普及。该项目还为军事、航空等行业提供通信支持,带来广泛经济效益。
2D Orbit Map
3D Orbit Map
Orbit Altitude Analysis Chart
Orbit Inclination Analysis Chart
Orbit Comprehensive Analysis Chart
View Comprehensive Chart
Conjunction Data List
Event ID Objects TCA Miss Dist (km) Collision Risk Probability Collision Risk Index (CRI) Action
CDM_260910-082905-373306-834122
2026-09-10T
08:29:33+0000
1.892 km
极远距离
2.095189E-6 低风险 0.41
CDM_260912-162505-253906-834121
2026-09-12T
16:25:50+0000
2.617 km
极远距离
1.444723E-6 低风险 0.38
CDM_260912-214306-051306-834122
2026-09-12T
21:43:02+0000
2.825 km
极远距离
1.413377E-6 低风险 0.38
CDM_260913-021806-689206-834121
2026-09-13T
02:18:25+0000
2.243 km
极远距离
1.05171E-6 低风险 0.35
CDM_260912-235706-689206-834121
2026-09-12T
23:57:43+0000
2.270 km
极远距离
1.028407E-6 低风险 0.35
Miss Distance Evolution Trend with All Objects
Collision Probability Evolution Trend with All Objects